Regional Weather Roundup
Issued by NWS

Home | Current Version | Previous Version | Graphics & Text | Print | Product List | Glossary Off
Versions: 1 2 3 4 5 6 7 8 9 10 11 12 13 14 15 16 17 18 19 20 21 22 23 24 25 26 27 28 29 30 31 32 33 34 35 36 37 38 39 40 41 42 43 44 45 46 47 48 49 50

000
ASUS43 KMKX 171100
RWRWI

WISCONSIN REGIONAL WEATHER ROUNDUP
NATIONAL WEATHER SERVICE MILWAUKEE/SULLIVAN WI
500 AM CST FRI NOV 17 2017

NOTE: "FAIR" INDICATES FEW OR NO CLOUDS BELOW 12,000 FEET WITH NO
SIGNIFICANT WEATHER AND/OR OBSTRUCTIONS TO VISIBILITY.

WIZ001-002-006>008-014>016-023>028-171200-
NORTHWEST WISCONSIN

CITY           SKY/WX    TMP DP  RH WIND       PRES   REMARKS
SUPERIOR ARPT  CLOUDY    33  26  75 S7        29.80F WCI  27
ASHLAND        CLOUDY    34  25  69 S12G20    29.84F WCI  25
HAYWARD        CLOUDY    33  25  72 S15G28    29.84F WCI  23
SIREN          CLOUDY    33  27  79 SE12G23   29.80F WCI  25
CUMBERLAND     CLOUDY    32  27  80 SE17G24   29.83F WCI  21
RICE LAKE      PTCLDY    32  28  85 SE22      29.87F WCI  20
CHETEK         CLOUDY    32  28  83 SE16G24   29.88F WCI  21
LADYSMITH      CLOUDY    33  28  83 SE13G24   29.90F WCI  23
EAU CLAIRE     CLOUDY    34  27  75 S14       29.90F WCI  25
MENOMONIE      CLOUDY    34  29  80 SE13G23   29.87F WCI  25
NEW RICHMOND   CLOUDY    34  27  76 SE16G23   29.81F WCI  23
OSCEOLA        CLOUDY    34  28  78 SE13G24   29.83F WCI  25
$$

WIZ003>005-009-010-017-018-171200-
NORTH CENTRAL WISCONSIN

CITY           SKY/WX    TMP DP  RH WIND       PRES   REMARKS
MANITOWISH WTR CLOUDY    29  28  98 S17G26    29.94S WCI  17
ARBOR VITAE    CLOUDY    32  29  89 S18G26    29.96F WCI  20
WOODRUFF       CLOUDY    32  29  89 S18G26    29.96F WCI  20
RHINELANDER    LGT SNOW  29  27  92 S9G22     29.99F FOG     WCI  20
EAGLE RIVER    CLOUDY    29  25  85 S12G18    29.97F WCI  19
LAND O LAKES   CLOUDY    29  26  90 S10G22    29.99F WCI  20
PHILLIPS       FLURRIES  29  28  95 SE12      29.90F WCI  20
TOMAHAWK       LGT SNOW  29  26  88 SE8       29.99F WCI  21
MEDFORD        CLOUDY    30  26  87 SE14G23   29.94F WCI  19
MERRILL        FLURRIES  31  28  90 S8G17     30.00F WCI  23
$$

WIZ029-030-035-036-043>047-171200-
CENTRAL WISCONSIN

CITY           SKY/WX    TMP DP  RH WIND       PRES   REMARKS
WAUSAU         CLOUDY    31  27  85 SE14      30.00F WCI  21
MOSINEE        NOT AVBL
MARSHFIELD     CLOUDY    31  26  82 SE14      29.97F WCI  21
STEVENS POINT  CLOUDY    30  27  90 SE10      30.04F WCI  21
WAUPACA        CLOUDY    35  29  80 SE5       30.09S WCI  31
WAUTOMA        CLOUDY    34  28  79 SE8       30.07F WCI  27
WISC RAPIDS    CLOUDY    33  27  78 S9        30.04F WCI  25
CAMP DOUGLAS   CLOUDY    34  28  78 SE13      30.01F WCI  25
$$

WIZ011>013-019>022-031-037>040-048>050-171200-
NORTHEAST WISCONSIN

CITY           SKY/WX    TMP DP  RH WIND       PRES   REMARKS
ANTIGO         CLOUDY    28  27  93 SE13G20   30.05F WCI  18
SHAWANO        CLOUDY    33  29  83 CALM      30.11S
OCONTO         CLOUDY    33  29  86 SE3       30.11F
STURGEON BAY   CLOUDY    35  30  82 SE8       30.11F WCI  29
GREEN BAY      CLOUDY    34  30  85 E3        30.11F
MANITOWOC      NOT AVBL
APPLETON       CLOUDY    34  28  80 SE6       30.08S WCI  29
CLINTONVILLE   CLOUDY    32  27  80 SE6       30.10F WCI  26
OSHKOSH        CLOUDY    34  30  85 SE7       30.07F WCI  28
$$

WIZ032>034-041-042-053>061-171200-
SOUTHWEST WISCONSIN

CITY           SKY/WX    TMP DP  RH WIND       PRES   REMARKS
LA CROSSE      CLOUDY    36  29  75 SE16      29.94F WCI  26
SPARTA         CLOUDY    34  29  82 SE7       30.01F WCI  28
VIROQUA        CLOUDY    32  31  97 SE15      29.96F WCI  22
BOSCOBEL       CLOUDY    36  29  75 S7        30.02F WCI  30
PRAIRIE DU CHI CLOUDY    35  28  78 SE8G17    30.01F WCI  28
PLATTEVILLE    CLOUDY    33  32  97 SE13      30.04F WCI  23
$$

WIZ056-057-062-063-064-067-068-171200-
SOUTH CENTRAL WISCONSIN

CITY           SKY/WX    TMP DP  RH WIND       PRES   REMARKS
REEDSBURG      CLOUDY    33  28  83 S9        30.04S WCI  25
BARABOO/DELLS  CLOUDY    33  28  82 S12G24    30.04F WCI  24
LONE ROCK      NOT AVBL
MINERAL POINT  CLOUDY    34  32  93 SE17      30.02F WCI  23
MADISON        CLOUDY    34  28  79 S15G24    30.07F WCI  24
MIDDLETON      CLOUDY    35  30  82 S14G20    30.06F WCI  25
WATERTOWN      PTCLDY    33  32  95 S9        30.08F WCI  25
MONROE         CLOUDY    32  28  86 SE12      30.07F WCI  23
JANESVILLE     CLOUDY    34  30  86 SE7       30.11F WCI  28
$$

WIZ051-052-058>065-066-070>072-171200-
SOUTHEAST WISCONSIN

CITY           SKY/WX    TMP DP  RH WIND       PRES   REMARKS
MILWAUKEE      CLOUDY    37  31  78 S7        30.13F WCI  32
WAUKESHA       CLOUDY    32  28  86 S6        30.13F WCI  26
MILWAUKEE/TIMM CLOUDY    34  28  80 S6        30.14F WCI  29
RACINE         CLOUDY    38  32  79 S7        30.15S WCI  33
BURLINGTON     CLOUDY    37  34  90 S7        30.13S WCI  31
KENOSHA        CLOUDY    36  30  79 S9        30.13F WCI  29
FOND DU LAC    CLOUDY    35  29  78 SE9       30.08F WCI  28
SHEBOYGAN      CLOUDY    36  35  96 SE3       30.09F
WEST BEND      CLOUDY    34  32  93 SE3       30.10F
JUNEAU         CLOUDY    32  29  89 SE10      30.08F WCI  24
$$

LSZ147-162-171200-
LAKE SUPERIOR

STATION/POSITION TIME  TEMP    WIND        PRES    WAVE
                       AIR SEA DIR/SP/G            HT/PER
                 (UTC) (F)     (DEG/KT/KT) (MB)    (FT/S)
DEVILS ISLAND    1000   35     170/  9/ 17 1013.2F
SAXON HARBOR     1040   34     160/ 11/ 24 1010.8F
$$

LMZ867-665-643>646-171200-
LAKE MICHIGAN

STATION/POSITION TIME  TEMP    WIND        PRES    WAVE
                       AIR SEA DIR/SP/G            HT/PER
                 (UTC) (F)     (DEG/KT/KT) (MB)    (FT/S)
N MID LAKE BUOY  0950   36 49  170/ 12/ 14 1023.3F   1/ 3
NORTHPORT PIER   1040   36     160/  8/ 13 1021.0R
KEWAUNEE LAKESHO 1030   38     150/ 11/ 16 1019.7F
SHEBOYGAN LAKESH 1000   39     210/  8/  9 1021.4R
PORT WASHINGTON  1040   39     180/  3/  6 1021.0F
MILWAUKEE LAKESH 1030   37     230/  7/  8   N/A
S MID LAKE BUOY  0950   43 50  150/ 16/ 19 1021.0F   2/ 7
KENOSHA   LAKESH 1000   38     200/ 10/ 13 1020.7
$$

TC  - TEMPERATURE IN CELSIUS
VSB - VISIBILITY IN STATUTE MILES
WCI - WIND CHILL INDEX
HX  - HEAT INDEX




USA.gov is the U.S. government's official web portal to all federal, state and local government web resources and services.